This is the latest recevied weather packets stored in our database for station/object KD4EED. If no packets are shown the sender has not sent any weather packets the latest 10 day(s).
| Time | Temp. | Humidity | Pressure | Rain* | Wind** | Luminosity | Snow |
|---|---|---|---|---|---|---|---|
| 1777407984 | 21.67° C | 46% | 1014.6 hPa | - | - | 811 W/m² | - |
| 1777407682 | 21.67° C | 45% | 1014.7 hPa | - | - | 814 W/m² | - |
| 1777407382 | 22.22° C | 44% | 1014.7 hPa | - | - | 818 W/m² | - |
| 1777407082 | 22.22° C | 43% | 1014.6 hPa | - | - | 820 W/m² | - |
| 1777406778 | 21.67° C | 44% | 1014.5 hPa | - | - | 821 W/m² | - |
| 1777406473 | 21.67° C | 44% | 1014.7 hPa | - | - | 824 W/m² | - |
| 1777406168 | 21.67° C | 43% | 1014.6 hPa | - | - | 825 W/m² | - |
| 1777405863 | 21.67° C | 44% | 1014.7 hPa | - | - | 824 W/m² | - |
| 1777405560 | 22.22° C | 42% | 1014.7 hPa | - | - | 821 W/m² | - |
| 1777405257 | 22.22° C | 43% | 1014.8 hPa | - | - | 819 W/m² | - |
| 1777404956 | 21.67° C | 43% | 1014.9 hPa | - | - | 819 W/m² | - |
| 1777404651 | 21.67° C | 45% | 1015 hPa | - | - | 815 W/m² | - |
| 1777404348 | 21.67° C | 44% | 1014.9 hPa | - | - | 808 W/m² | - |
| 1777404045 | 21.67° C | 44% | 1014.8 hPa | - | - | 800 W/m² | - |
| 1777403740 | 21.67° C | 44% | 1015.1 hPa | - | - | 795 W/m² | - |
| 1777403439 | 21.67° C | 44% | 1014.9 hPa | - | - | 789 W/m² | - |
| 1777403138 | 21.11° C | 44% | 1014.8 hPa | - | - | 781 W/m² | - |
| 1777402835 | 21.67° C | 43% | 1015.1 hPa | - | - | 775 W/m² | - |
| 1777402532 | 21.67° C | 43% | 1015.1 hPa | - | - | 768 W/m² | - |
| 1777402228 | 21.67° C | 43% | 1015 hPa | - | - | 757 W/m² | - |
| 1777401923 | 21.67° C | 42% | 1015.1 hPa | - | - | 747 W/m² | - |
| 1777401622 | 21.67° C | 42% | 1015.2 hPa | - | - | 739 W/m² | - |
| 1777401319 | 22.22° C | 41% | 1015.1 hPa | - | - | 729 W/m² | - |
| 1777401015 | 22.22° C | 42% | 1015.2 hPa | - | - | 719 W/m² | - |
| 1777400711 | 22.22° C | 43% | 1015.3 hPa | - | - | 708 W/m² | - |
* Rain since midnight (hover to see other rain measurements)
** Current wind speed in m/s (hover to see current wind gust speed)